Skip Page Navigation
NASA JPL Caltech
NASA Logo - Jet Propulsion Laboratory + View the NASA Portal
+ Center for Near-Earth Object Studies
JPL Home Earth Solar System Stars & Galaxies Technology
JPL Solar System Dynamics
BODIES ORBITS EPHEMERIDES TOOLS PHYSICAL DATA DISCOVERY FAQ SITE MAP
JPL Small-Body Database Browser
Search: [ help ]  
185265 (2006 UE128)
Classification: Main-belt Asteroid          SPK-ID: 2185265
Ephemeris | Orbit Diagram | Orbital Elements | Mission Design | Physical Parameters | Discovery Circumstances | Close-Approach Data ]

[ hide orbit diagram ]

For accurate long-term ephemerides, please instead use our Horizons system.This orbit viewer was implemented using two-body methods, and hence should not be used for determining accurate long-term trajectories (over several years or decades) or planetary encounter circumstances.


Orbital Elements at Epoch 2459000.5 (2020-May-31.0) TDB
Reference: JPL 18 (heliocentric ecliptic J2000)
 Element Value Uncertainty (1-sigma)   Units 
e .0870292191318698 3.5392e-08  
a 2.339782398905506 1.3155e-08 au
q 2.136152963790266 8.6098e-08 au
i 4.337535336539588 5.3042e-06 deg
node 31.37143586399579 6.7742e-05 deg
peri 60.01186872295676 7.8924e-05 deg
M 226.8089442030267 4.2362e-05 deg
tp 2459484.153340983308
(2021-Sep-26.65334098)
0.00015571 TDB
period 1307.258972549923
3.58
1.1025e-05
3.018e-08
d
yr
n .2753853731810986 2.3225e-09 deg/d
Q 2.543411834020745 1.43e-08 au
  Orbit Determination Parameters
   # obs. used (total)      280  
   data-arc span      7690 days (21.05 yr)  
   first obs. used      1999-10-01  
   last obs. used      2020-10-20  
   planetary ephem.      DE431  
   SB-pert. ephem.      SB431-N16  
   condition code      0  
   norm. resid. RMS      .53594  
   source      ORB  
   producer      Otto Matic  
   solution date      2020-Nov-12 08:15:19  

Additional Information
 Earth MOID = 1.15652 au 
 Jupiter MOID = 2.58639 au 
 T_jup = 3.556 
[ show covariance matrix ]

Ephemeris | Orbit Diagram | Orbital Elements | Mission Design | Physical Parameters | Discovery Circumstances | Close-Approach Data ]

Physical Parameter Table
Parameter Symbol Value Units Sigma Reference Notes
absolute magnitude H 17.2   n/a MPO433215  

185265 (2006 UE128)          Discovered 2006-Oct-19 by NEAT at Palomar
Reference: 20080420/Numbers.arcLast Updated: 2008-04-23

[ hide close-approach data ]
Close-Approach Data   ...sorted by Date/Time (TDB)
Date/Time (TDB) Time Uncertainty
(days_HH:MM)
Body Nominal Distance (au) Minimum Distance (au) Maximum Distance (au) V-relative (km/s) V-infinity (km/s) JD (TDB) Time Uncertainty (minutes) Semi-major axis (km) Semi-minor axis (km) range-LOV angle (deg) N-sigma BP Orbit Ref. Reference Modified
2073-May-05 19:37 00:04 Thisb 0.0245407837444963 0.0245161510795644 0.0245654179726475 4.39248893438352 4.39248887113132 2478333.317465876 3.57795200958262 1266.29540014384 117.245064332737 -14.2314149500732 8190.11677725423 T 18 CATAB v2.0f-lin.ifort 2020-Nov-12 08:15:20 2020-Nov-12 08:15

Alternate Designations
 2006 UE128 = 1999 TT62 
Ephemeris | Orbit Diagram | Orbital Elements | Mission Design | Physical Parameters | Discovery Circumstances | Close-Approach Data ]
ABOUT SSD CREDITS/AWARDS PRIVACY/COPYRIGHT GLOSSARY LINKS
FirstGov 2021-Jan-19 00:35 UT
(server date/time)  
NASA Home Page
Site Manager:   Ryan S. Park
Webmaster  Alan B. Chamberlin